Weather History for South Hill, VA

Change the Weather History Date:

Friday, June 22, 2012

  Actual Average (KEMV) Record (KEMV)
Temperature  
Mean Temperature 29 °C -  
Max Temperature 36 °C 29 °C 34 °C (1988)
Min Temperature 22 °C 17 °C 11 °C (1992)
Cooling Degree Days 18    
Growing Degree Days 34 (Base 50)    
Moisture  
Dew Point 22 °C    
Average Humidity 77    
Maximum Humidity 100    
Minimum Humidity 41    
Precipitation  
Precipitation 0.00 mm - - ()
Sea Level Pressure  
Sea Level Pressure 1013 hPa    
Wind  
Wind Speed 5 km/h (SW)    
Max Wind Speed 37 km/h    
Max Gust Speed 47 km/h    
Visibility 16 kilometers    
Events Rain , Thunderstorm    
Averages and records for this station are not official NWS values.
T = Trace of Precipitation, MM = Missing Value Source: NWS Daily Summary

Daily Weather History Graph

Daily Weather History Graph

Search for Another Location

Airport:

Trip Planner

Search our weather history database for the weather conditions in past years. The results will help you decide how hot, cold, wet, or windy it might be!

Date:

Astronomy

Jun. 22, 2012 Rise Set
Actual Time 5:54 AM EDT 8:34 PM EDT
Civil Twilight 5:23 AM EDT 9:05 PM EDT
Nautical Twilight 4:45 AM EDT 9:43 PM EDT
Astronomical Twilight 4:02 AM EDT 10:26 PM EDT
Moon 8:47 AM EDT (6/22) 10:35 PM EDT (6/22)
Length of Visible Light 15h 41m
Length of Day
14h 40m
Waxing Crescent, 9% of the Moon is Illuminated
Jun 22
Waxing Crescent
Jun 26
First Quarter
Jul 3
Full
Jul 10
Last Quarter
Jul 19
New

Hourly Weather History & Observations

Time (EDT) Temp. Heat Index Dew Point Humidity Pressure Visibility Wind Dir Wind Speed Gust Speed Precip Events Conditions
12:35 AM 25.0 °C - 22.0 °C 83% 1014.4 hPa 16.1 km SSW 7.4 km/h / 2.1 m/s - N/A   Clear
12:55 AM 24.0 °C - 22.0 °C 89% 1014.1 hPa 16.1 km SSW 5.6 km/h / 1.5 m/s - N/A   Clear
1:15 AM 24.0 °C - 22.0 °C 89% 1014.1 hPa 16.1 km Calm Calm - N/A   Clear
1:35 AM 24.0 °C - 22.0 °C 89% 1014.1 hPa 16.1 km SW 7.4 km/h / 2.1 m/s - N/A   Clear
1:55 AM 24.0 °C - 22.0 °C 89% 1013.8 hPa 16.1 km South 7.4 km/h / 2.1 m/s - N/A   Clear
2:15 AM - - - N/A% 1013.8 hPa 16.1 km SSW 7.4 km/h / 2.1 m/s - N/A   Clear
2:35 AM 24.0 °C - 22.0 °C 89% 1013.4 hPa 16.1 km Calm Calm - N/A   Clear
2:55 AM 24.0 °C - 22.0 °C 89% 1013.1 hPa 16.1 km SSW 7.4 km/h / 2.1 m/s - N/A   Clear
3:15 AM 24.0 °C - 22.0 °C 89% 1013.1 hPa 16.1 km SW 7.4 km/h / 2.1 m/s - N/A   Clear
3:35 AM 24.0 °C - 22.0 °C 89% 1013.1 hPa 16.1 km SSW 7.4 km/h / 2.1 m/s - N/A   Clear
3:55 AM 24.0 °C - 22.0 °C 89% 101.2 hPa 16.1 km Calm Calm - N/A   Clear
4:15 AM 24.0 °C - 22.0 °C 89% 1012.8 hPa 16.1 km Calm Calm - N/A   Clear
4:35 AM 24.0 °C - 22.0 °C 89% 1012.8 hPa 16.1 km Calm Calm - N/A   Clear
4:55 AM 24.0 °C - 22.0 °C 89% 1013.1 hPa 16.1 km Calm Calm - N/A   Clear
5:15 AM 23.0 °C - 22.0 °C 94% 1012.8 hPa 16.1 km Calm Calm - N/A   Clear
5:35 AM 23.0 °C - 22.0 °C 94% 1012.8 hPa 16.1 km Calm Calm - N/A   Clear
5:55 AM 23.0 °C - 22.0 °C 94% 1012.8 hPa 16.1 km Calm Calm - N/A   Scattered Clouds
6:15 AM 23.0 °C - 22.0 °C 94% 1013.1 hPa 16.1 km Calm Calm - N/A   Clear
6:35 AM 22.0 °C - 22.0 °C 100% 1013.1 hPa 11.3 km Calm Calm - N/A   Clear
6:55 AM 23.0 °C - 23.0 °C 100% 1013.1 hPa 16.1 km Calm Calm - N/A   Clear
7:15 AM 24.0 °C - 23.0 °C 94% 1013.1 hPa 16.1 km WSW 5.6 km/h / 1.5 m/s - N/A   Clear
7:35 AM 24.0 °C - 22.0 °C 89% 1013.1 hPa 16.1 km SSW 5.6 km/h / 1.5 m/s - N/A   Clear
7:55 AM 24.0 °C - 22.0 °C 89% 1013.1 hPa 16.1 km Calm Calm - N/A   Clear
8:15 AM 26.0 °C - 23.0 °C 83% 1013.1 hPa 16.1 km WNW 5.6 km/h / 1.5 m/s - N/A   Clear
8:35 AM 27.0 °C 29.6 °C 23.0 °C 79% - 16.1 km WNW 5.6 km/h / 1.5 m/s - N/A   Clear
8:55 AM 28.0 °C 31.2 °C 23.0 °C 74% 1013.1 hPa 16.1 km Calm Calm - N/A   Clear
9:55 AM 29.0 °C 32.0 °C 22.0 °C 66% 1013.1 hPa 16.1 km WSW 5.6 km/h / 1.5 m/s - N/A   Clear
10:35 AM 31.0 °C 34.4 °C 22.0 °C 58% 1012.8 hPa 16.1 km SW 5.6 km/h / 1.5 m/s - N/A   Clear
10:55 AM 31.0 °C 34.4 °C 22.0 °C 58% 1012.8 hPa 16.1 km Calm Calm - N/A   Clear
11:15 AM 33.0 °C 37.8 °C 23.0 °C 55% 1013.1 hPa 16.1 km West 5.6 km/h / 1.5 m/s - N/A   Clear
11:35 AM 32.0 °C 35.6 °C 22.0 °C 55% 1013.1 hPa 16.1 km SW 9.3 km/h / 2.6 m/s - N/A   Clear
11:55 AM 33.0 °C 37.8 °C 23.0 °C 55% 1013.1 hPa 16.1 km SSW 11.1 km/h / 3.1 m/s - N/A   Clear
12:15 PM 33.0 °C 36.9 °C 22.0 °C 52% 1013.1 hPa 16.1 km SW 11.1 km/h / 3.1 m/s - N/A   Clear
12:35 PM 33.0 °C 36.9 °C 22.0 °C 52% 1013.1 hPa 16.1 km West 5.6 km/h / 1.5 m/s - N/A   Clear
12:55 PM 34.0 °C 39.1 °C 23.0 °C 52% 1012.8 hPa 16.1 km South 5.6 km/h / 1.5 m/s - N/A   Clear
1:15 PM 34.0 °C 39.1 °C 23.0 °C 52% 1012.8 hPa 16.1 km WSW 5.6 km/h / 1.5 m/s - N/A   Clear
1:35 PM 34.0 °C 39.1 °C 23.0 °C 52% 1012.4 hPa 16.1 km North - - N/A   Clear
1:55 PM 34.0 °C 39.1 °C 23.0 °C 52% 1012.1 hPa 16.1 km Calm Calm - N/A   Clear
2:15 PM 34.0 °C 38.1 °C 22.0 °C 49% 1011.7 hPa 16.1 km Calm Calm - N/A   Scattered Clouds
2:35 PM 34.0 °C 38.1 °C 22.0 °C 49% 1011.1 hPa 16.1 km SW 9.3 km/h / 2.6 m/s - N/A   Scattered Clouds
2:55 PM 35.0 °C 38.5 °C 21.0 °C 44% 1010.7 hPa 16.1 km WSW 9.3 km/h / 2.6 m/s - N/A   Clear
3:15 PM 34.0 °C 37.1 °C 21.0 °C 46% 1010.7 hPa 16.1 km ENE 9.3 km/h / 2.6 m/s - N/A   Clear
3:35 PM 33.0 °C 36.9 °C 22.0 °C 52% 1010.4 hPa 16.1 km North - - N/A   Scattered Clouds
3:55 PM 33.0 °C 36.9 °C 22.0 °C 52% 1010.4 hPa 16.1 km North - - N/A   Scattered Clouds
4:55 PM 36.0 °C 39.5 °C 21.0 °C 41% 1009.7 hPa 16.1 km SW 16.7 km/h / 4.6 m/s - N/A   Clear
5:15 PM 32.0 °C 34.9 °C 21.0 °C 52% 1010.4 hPa 16.1 km NNW 37.0 km/h / 10.3 m/s 46.3 km/h / 12.9 m/s N/A Thunderstorm Scattered Clouds
5:35 PM 29.0 °C 32.0 °C 22.0 °C 66% 1011.1 hPa 16.1 km NNW 20.4 km/h / 5.7 m/s 33.3 km/h / 9.3 m/s N/A Thunderstorm Thunderstorm
5:55 PM 28.0 °C 30.2 °C 21.0 °C 66% 1011.1 hPa 16.1 km NNW 16.7 km/h / 4.6 m/s - N/A Thunderstorm Scattered Clouds
6:15 PM 28.0 °C 30.2 °C 21.0 °C 66% 1010.0 hPa 16.1 km NNW 16.7 km/h / 4.6 m/s 27.8 km/h / 7.7 m/s N/A Thunderstorm Clear
6:35 PM 28.0 °C 30.2 °C 21.0 °C 66% 1011.4 hPa 16.1 km NNW 11.1 km/h / 3.1 m/s - N/A Thunderstorm Clear
6:55 PM 27.0 °C 28.9 °C 21.0 °C 70% 1012.4 hPa 16.1 km Calm Calm - N/A Thunderstorm Scattered Clouds
7:35 PM 26.0 °C - 21.0 °C 74% 1013.4 hPa 16.1 km Calm Calm - N/A Thunderstorm Overcast
7:55 PM 26.0 °C - 21.0 °C 74% 1013.1 hPa 16.1 km North - - N/A Rain Light Rain
8:15 PM 24.0 °C - 22.0 °C 89% 1012.8 hPa 16.1 km Calm Calm - N/A Rain , Thunderstorm Light Thunderstorms and Rain
8:35 PM 24.0 °C - 22.0 °C 89% 1012.8 hPa 16.1 km Calm Calm - N/A Rain Light Rain
8:55 PM 23.0 °C - 22.0 °C 94% 1013.1 hPa 16.1 km Calm Calm - N/A   Clear
9:15 PM 23.0 °C - 22.0 °C 94% 1013.1 hPa 16.1 km North - - N/A   Clear
9:35 PM 23.0 °C - 22.0 °C 94% 1013.8 hPa 16.1 km SSE 7.4 km/h / 2.1 m/s - N/A   Clear
9:55 PM 23.0 °C - 22.0 °C 94% 1014.1 hPa 16.1 km SSE 5.6 km/h / 1.5 m/s - N/A   Scattered Clouds
10:15 PM 22.0 °C - 22.0 °C 100% 1014.4 hPa 16.1 km South 7.4 km/h / 2.1 m/s - N/A Rain Light Rain
10:35 PM 22.0 °C - 22.0 °C 100% 1014.4 hPa 16.1 km SSE 7.4 km/h / 2.1 m/s - N/A   Scattered Clouds
10:55 PM 22.0 °C - 22.0 °C 100% 1014.8 hPa 11.3 km SSW 5.6 km/h / 1.5 m/s - N/A Rain Light Rain
11:15 PM 22.0 °C - 22.0 °C 100% 1014.4 hPa 11.3 km South 5.6 km/h / 1.5 m/s - N/A Rain Light Rain
11:35 PM 22.0 °C - 22.0 °C 100% 1014.4 hPa 11.3 km SSW 7.4 km/h / 2.1 m/s - N/A   Scattered Clouds
11:55 PM 22.0 °C - 22.0 °C 100% 1014.4 hPa 8.0 km SSW 9.3 km/h / 2.6 m/s - N/A   Mostly Cloudy